When you browse on this site, cookies collect data to enhance your experience and personalize the content and advertising you see.
Visit our Privacy Policy to learn more. By continuing to use the site, you agree to this use of cookies and data.
  • In Latvia
  • List of Countries
  • For 7 days
  • Water Temperature
  • Satellite Maps
  • Weather Map
  • Weather Widgets
  • user-avatar
    Login

    Hourly Weather Laszkar Gah

    Today, 18 April, Thursday

    Time Temperature Precipitation Wind Pressure Humidity
    00:00 +23°C° 0 mm 2 mps 694 mmHg 39%
    01:00 +23°C° 0 mm 2 mps 694 mmHg 39%
    02:00 +23°C° 0 mm 1 mps 694 mmHg 40%
    03:00 +22°C° 0 mm 1 mps 694 mmHg 41%
    04:00 +21°C° 0 mm 1 mps 694 mmHg 43%
    05:00 +22°C° 0 mm 1 mps 694 mmHg 40%
    06:00 +21°C° 0 mm 0 mps 695 mmHg 37%
    07:00 +21°C° 0 mm 0 mps 695 mmHg 34%
    08:00 +23°C° 0 mm 0 mps 696 mmHg 32%
    09:00 +24°C° 0 mm 0 mps 696 mmHg 30%
    10:00 +25°C° 0 mm 0 mps 696 mmHg 27%
    11:00 +28°C° 0 mm 1 mps 696 mmHg 24%
    12:00 +29°C° 0 mm 1 mps 696 mmHg 22%
    13:00 +30°C° 0 mm 2 mps 696 mmHg 19%
    14:00 +30°C° 0 mm 2 mps 695 mmHg 18%
    15:00 +31°C° 0 mm 3 mps 695 mmHg 17%
    16:00 +31°C° 0 mm 3 mps 695 mmHg 16%
    17:00 +30°C° 0 mm 3 mps 695 mmHg 18%
    18:00 +30°C° 0 mm 2 mps 695 mmHg 19%
    19:00 +29°C° 0 mm 2 mps 695 mmHg 21%
    20:00 +28°C° 0 mm 2 mps 695 mmHg 22%
    21:00 +27°C° 0 mm 1 mps 695 mmHg 24%
    22:00 +27°C° 0 mm 1 mps 695 mmHg 25%
    23:00 +26°C° 0 mm 1 mps 694 mmHg 27%

    Tomorrow, 19 April, Friday

    Time Temperature Precipitation Wind Pressure Humidity
    00:00 +25°C° 0 mm 1 mps 694 mmHg 28%
    01:00 +25°C° 0 mm 1 mps 693 mmHg 29%
    02:00 +24°C° 0 mm 1 mps 693 mmHg 29%
    03:00 +24°C° 0 mm 2 mps 693 mmHg 29%
    04:00 +24°C° 0 mm 2 mps 693 mmHg 29%
    05:00 +25°C° 0 mm 2 mps 693 mmHg 27%
    06:00 +25°C° 0 mm 2 mps 694 mmHg 26%
    07:00 +26°C° 0 mm 1 mps 694 mmHg 25%
    08:00 +28°C° 0 mm 1 mps 694 mmHg 22%
    09:00 +29°C° 0 mm 1 mps 695 mmHg 19%
    10:00 +31°C° 0 mm 1 mps 695 mmHg 16%
    11:00 +31°C° 0 mm 1 mps 695 mmHg 14%
    12:00 +32°C° 0 mm 1 mps 694 mmHg 13%
    13:00 +33°C° 0 mm 1 mps 694 mmHg 11%
    14:00 +34°C° 0 mm 1 mps 694 mmHg 10%
    15:00 +35°C° 0 mm 2 mps 693 mmHg 10%
    16:00 +35°C° 0 mm 2 mps 693 mmHg 9%
    17:00 +34°C° 0 mm 2 mps 693 mmHg 11%
    18:00 +32°C° 0 mm 1 mps 692 mmHg 14%
    19:00 +31°C° 0 mm 1 mps 692 mmHg 16%
    20:00 +31°C° 0 mm 1 mps 692 mmHg 16%
    21:00 +30°C° 0 mm 1 mps 692 mmHg 16%
    22:00 +30°C° 0 mm 1 mps 692 mmHg 16%
    23:00 +29°C° 0 mm 1 mps 692 mmHg 17%

    Day after tomorrow, 20 April, Saturday

    Time Temperature Precipitation Wind Pressure Humidity
    00:00 +29°C° 0 mm 1 mps 692 mmHg 18%
    01:00 +28°C° 0 mm 1 mps 691 mmHg 18%
    02:00 +27°C° 0 mm 1 mps 691 mmHg 19%
    03:00 +27°C° 0 mm 1 mps 690 mmHg 19%
    04:00 +26°C° 0 mm 2 mps 690 mmHg 20%
    05:00 +27°C° 0 mm 2 mps 691 mmHg 19%
    06:00 +28°C° 0 mm 2 mps 691 mmHg 19%
    07:00 +28°C° 0 mm 2 mps 692 mmHg 18%
    08:00 +30°C° 0 mm 2 mps 692 mmHg 16%
    09:00 +32°C° 0 mm 2 mps 692 mmHg 13%
    10:00 +34°C° 0 mm 2 mps 693 mmHg 11%
    11:00 +35°C° 0 mm 2 mps 692 mmHg 11%
    12:00 +36°C° 0 mm 2 mps 692 mmHg 10%
    13:00 +37°C° 0 mm 2 mps 692 mmHg 10%
    14:00 +37°C° 0 mm 2 mps 691 mmHg 10%
    15:00 +37°C° 0 mm 3 mps 691 mmHg 11%
    16:00 +37°C° 0 mm 3 mps 690 mmHg 11%
    17:00 +36°C° 0 mm 3 mps 690 mmHg 12%
    18:00 +35°C° 0 mm 3 mps 690 mmHg 14%
    19:00 +34°C° 0 mm 2 mps 690 mmHg 16%
    20:00 +32°C° 0 mm 2 mps 691 mmHg 17%
    21:00 +31°C° 0 mm 2 mps 691 mmHg 19%
    22:00 +31°C° 0 mm 2 mps 691 mmHg 20%
    23:00 +30°C° 0 mm 2 mps 690 mmHg 21%

    21 April, Sunday

    Time Temperature Precipitation Wind Pressure Humidity
    00:00 +29°C° 0 mm 2 mps 690 mmHg 22%
    01:00 +29°C° 0 mm 2 mps 690 mmHg 22%
    02:00 +28°C° 0 mm 2 mps 690 mmHg 23%
    03:00 +28°C° 0 mm 3 mps 689 mmHg 24%
    04:00 +27°C° 0 mm 3 mps 689 mmHg 25%
    05:00 +28°C° 0 mm 3 mps 690 mmHg 24%
    06:00 +29°C° 0 mm 3 mps 690 mmHg 22%
    07:00 +29°C° 0 mm 4 mps 691 mmHg 21%
    08:00 +31°C° 0 mm 3 mps 691 mmHg 19%
    09:00 +34°C° 0 mm 3 mps 692 mmHg 16%
    10:00 +36°C° 0 mm 3 mps 692 mmHg 13%
    11:00 +37°C° 0 mm 3 mps 692 mmHg 12%
    12:00 +38°C° 0 mm 3 mps 691 mmHg 11%
    13:00 +39°C° 0 mm 3 mps 691 mmHg 10%
    14:00 +39°C° 0 mm 3 mps 691 mmHg 10%
    15:00 +38°C° 0 mm 3 mps 690 mmHg 10%
    16:00 +38°C° 0 mm 3 mps 690 mmHg 11%
    17:00 +37°C° 0 mm 4 mps 690 mmHg 12%
    18:00 +36°C° 0 mm 5 mps 690 mmHg 14%
    19:00 +35°C° 0 mm 6 mps 690 mmHg 16%
    20:00 +34°C° 0 mm 5 mps 691 mmHg 18%
    21:00 +33°C° 0 mm 4 mps 691 mmHg 20%
    22:00 +31°C° 0 mm 3 mps 691 mmHg 21%
    23:00 +30°C° 0 mm 3 mps 691 mmHg 22%

    22 April, Monday

    Time Temperature Precipitation Wind Pressure Humidity
    00:00 +29°C° 0 mm 3 mps 690 mmHg 23%
    01:00 +28°C° 0 mm 3 mps 690 mmHg 24%
    02:00 +28°C° 0 mm 3 mps 690 mmHg 25%
    03:00 +27°C° 0 mm 2 mps 690 mmHg 26%
    04:00 +26°C° 0 mm 2 mps 690 mmHg 26%
    05:00 +27°C° 0 mm 2 mps 691 mmHg 26%
    06:00 +28°C° 0 mm 2 mps 691 mmHg 25%
    07:00 +29°C° 0 mm 2 mps 692 mmHg 24%
    08:00 +30°C° 0 mm 2 mps 692 mmHg 21%
    09:00 +32°C° 0 mm 2 mps 693 mmHg 17%
    10:00 +33°C° 0 mm 1 mps 693 mmHg 14%
    11:00 +35°C° 0 mm 2 mps 693 mmHg 13%
    12:00 +36°C° 0 mm 2 mps 692 mmHg 11%
    13:00 +37°C° 0 mm 2 mps 692 mmHg 9%
    14:00 +37°C° 0 mm 3 mps 692 mmHg 9%
    15:00 +38°C° 0 mm 3 mps 691 mmHg 9%
    16:00 +38°C° 0 mm 4 mps 691 mmHg 8%
    17:00 +37°C° 0 mm 3 mps 691 mmHg 10%
    18:00 +36°C° 0 mm 3 mps 691 mmHg 11%
    19:00 +35°C° 0 mm 2 mps 691 mmHg 12%
    20:00 +35°C° 0 mm 2 mps 691 mmHg 13%
    21:00 +34°C° 0 mm 2 mps 691 mmHg 14%
    22:00 +34°C° 0 mm 2 mps 691 mmHg 15%
    23:00 +32°C° 0.2 mm 2 mps 691 mmHg 18%

    23 April, Tuesday

    Time Temperature Precipitation Wind Pressure Humidity
    00:00 +31°C° 0.2 mm 2 mps 691 mmHg 21%
    01:00 +30°C° 0.2 mm 3 mps 690 mmHg 24%
    02:00 +30°C° 0.1 mm 2 mps 690 mmHg 27%
    03:00 +29°C° 0.1 mm 2 mps 690 mmHg 30%
    04:00 +28°C° 0.1 mm 1 mps 690 mmHg 33%
    05:00 +28°C° 0.3 mm 1 mps 691 mmHg 33%
    06:00 +29°C° 0.3 mm 1 mps 691 mmHg 33%
    07:00 +29°C° 0.3 mm 1 mps 692 mmHg 32%
    08:00 +30°C° 0 mm 2 mps 692 mmHg 28%
    09:00 +32°C° 0 mm 2 mps 692 mmHg 24%
    10:00 +35°C° 0 mm 3 mps 692 mmHg 20%
    11:00 +36°C° 0 mm 3 mps 692 mmHg 18%
    12:00 +37°C° 0 mm 4 mps 691 mmHg 16%
    13:00 +38°C° 0 mm 4 mps 691 mmHg 14%
    14:00 +39°C° 0 mm 5 mps 690 mmHg 14%
    15:00 +39°C° 0 mm 6 mps 690 mmHg 14%
    16:00 +38°C° 0 mm 7 mps 689 mmHg 14%
    17:00 +36°C° 0 mm 7 mps 689 mmHg 16%
    18:00 +35°C° 0 mm 7 mps 689 mmHg 17%
    19:00 +34°C° 0 mm 7 mps 689 mmHg 19%
    20:00 +34°C° 0.1 mm 6 mps 689 mmHg 21%
    21:00 +33°C° 0.1 mm 6 mps 690 mmHg 23%
    22:00 +33°C° 0.1 mm 6 mps 690 mmHg 25%
    23:00 +32°C° 0 mm 5 mps 689 mmHg 27%
    Show more